,,,PA_Meas_PMT16A,,PR_Meas_QMR101_102,,RH_Meas_QMH101,,SR_Meas_QMS101,,TA_Meas_QMH101,,GenWind,,GenWind,
date,time,status,PA,status,PR,status,RH,status,SR,status,TA,status,DirAvg,status,SpdAvg,
2012-04-08, 00:00:04,VALID,1001.64,VALID,0,VALID,91.1053,VALID,0.104696,VALID,23.3695,VALID,48,VALID,0.671484,
2012-04-08, 00:01:04,VALID,1001.65,VALID,0,VALID,91.0671,VALID,0.104696,VALID,23.3305,VALID,48,VALID,0.641797,
2012-04-08, 00:02:04,VALID,1001.66,VALID,0,VALID,91.3266,VALID,0.104696,VALID,23.311,VALID,48,VALID,0.763281,
2012-04-08, 00:03:04,VALID,1001.64,VALID,0,VALID,91.6012,VALID,0,VALID,23.2507,VALID,48,VALID,0.773828,
2012-04-08, 00:04:04,VALID,1001.66,VALID,0,VALID,91.6623,VALID,0.104696,VALID,23.2524,VALID,48,VALID,0.777344,
2012-04-08, 00:05:04,VALID,1001.64,VALID,0,VALID,91.7614,VALID,0,VALID,23.2329,VALID,48,VALID,0.728906,
2012-04-08, 00:06:04,VALID,1001.65,VALID,0,VALID,91.8988,VALID,0,VALID,23.2329,VALID,48,VALID,0.602344,
2012-04-08, 00:07:04,VALID,1001.64,VALID,0,VALID,91.8988,VALID,0,VALID,23.1939,VALID,48,VALID,0.624609,
2012-04-08, 00:08:04,VALID,1001.65,VALID,0,VALID,91.8835,VALID,0,VALID,23.1939,VALID,48,VALID,0.5125,
2012-04-08, 00:09:04,VALID,1001.66,VALID,0,VALID,91.8911,VALID,0,VALID,23.1531,VALID,48,VALID,0.44375,
2012-04-08, 00:10:04,VALID,1001.62,VALID,0,VALID,91.9064,VALID,0,VALID,23.1549,VALID,48,VALID,0.405469,
2012-04-08, 00:11:04,VALID,1001.59,VALID,0,VALID,91.998,VALID,0.104696,VALID,23.1549,VALID,48,VALID,0.302344,
2012-04-08, 00:12:04,VALID,1001.57,VALID,0,VALID,92.1277,VALID,0.104696,VALID,23.1336,VALID,48,VALID,0.221094,
2012-04-08, 00:13:04,VALID,1001.55,VALID,0,VALID,92.265,VALID,0,VALID,23.1549,VALID,48,VALID,0.103125,
2012-04-08, 00:14:04,VALID,1001.51,VALID,0,VALID,92.3337,VALID,0.104696,VALID,23.1549,VALID,48,VALID,0,
2012-04-08, 00:15:04,VALID,1001.52,VALID,0,VALID,92.2879,VALID,0,VALID,23.1549,VALID,48,VALID,0,
2012-04-08, 00:16:04,VALID,1001.49,VALID,0,VALID,92.2803,VALID,0,VALID,23.1549,VALID,48,VALID,0,
2012-04-08, 00:17:04,VALID,1001.45,VALID,0,VALID,92.3489,VALID,0,VALID,23.1531,VALID,48,VALID,0,
2012-04-08, 00:18:04,VALID,1001.43,VALID,0,VALID,92.3718,VALID,0,VALID,23.1744,VALID,48,VALID,0,
2012-04-08, 00:19:04,VALID,1001.45,VALID,0,VALID,92.3108,VALID,0,VALID,23.1549,VALID,48,VALID,0,
2012-04-08, 00:20:04,VALID,1001.41,VALID,0,VALID,92.326,VALID,0.104696,VALID,23.1549,VALID,48,VALID,0,
2012-04-08, 00:21:04,VALID,1001.41,VALID,0,VALID,92.4328,VALID,0.104696,VALID,23.1744,VALID,48,VALID,0,
2012-04-08, 00:22:04,VALID,1001.41,VALID,0,VALID,92.471,VALID,0,VALID,23.1744,VALID,48,VALID,0.464063,
2012-04-08, 00:23:04,VALID,1001.37,VALID,0,VALID,92.5091,VALID,0,VALID,23.1939,VALID,72,VALID,0.611328,
2012-04-08, 00:24:04,VALID,1001.36,VALID,0,VALID,92.6236,VALID,0.104696,VALID,23.1921,VALID,117,VALID,0.689453,
2012-04-08, 00:25:04,VALID,1001.32,VALID,0,VALID,92.6312,VALID,0,VALID,23.2524,VALID,117,VALID,0.782031,
2012-04-08, 00:26:04,VALID,1001.31,VALID,0,VALID,92.5244,VALID,0.104696,VALID,23.2915,VALID,126,VALID,0.99375,
2012-04-08, 00:27:04,VALID,1001.26,VALID,0,VALID,92.4252,VALID,0,VALID,23.311,VALID,126,VALID,0.975781,
2012-04-08, 00:28:04,VALID,1001.26,VALID,0,VALID,92.2726,VALID,0,VALID,23.35,VALID,126,VALID,0.703906,
2012-04-08, 00:29:04,VALID,1001.28,VALID,0,VALID,92.0666,VALID,0,VALID,23.35,VALID,126,VALID,0.664844,
2012-04-08, 00:30:04,VALID,1001.25,VALID,0,VALID,91.8606,VALID,0.104696,VALID,23.35,VALID,126,VALID,0.728516,
2012-04-08, 00:31:04,VALID,1001.24,VALID,0,VALID,91.8454,VALID,0,VALID,23.3305,VALID,126,VALID,0.885156,
2012-04-08, 00:32:04,VALID,1001.21,VALID,0,VALID,91.9751,VALID,0,VALID,23.3305,VALID,126,VALID,0.892187,
2012-04-08, 00:33:04,VALID,1001.19,VALID,0,VALID,92.059,VALID,0,VALID,23.3305,VALID,126,VALID,1.06836,
2012-04-08, 00:34:04,VALID,1001.15,VALID,0,VALID,92.0895,VALID,0,VALID,23.3092,VALID,126,VALID,0.812891,
2012-04-08, 00:35:04,VALID,1001.17,VALID,0,VALID,92.0056,VALID,0,VALID,23.3305,VALID,125,VALID,0.693359,
2012-04-08, 00:36:04,VALID,1001.13,VALID,0,VALID,91.9674,VALID,0,VALID,23.311,VALID,126,VALID,0.734766,
2012-04-08, 00:37:04,VALID,1001.15,VALID,0,VALID,91.8606,VALID,0,VALID,23.311,VALID,126,VALID,0.521094,
2012-04-08, 00:38:04,VALID,1001.13,VALID,0,VALID,91.853,VALID,0,VALID,23.2932,VALID,125,VALID,0.575,
2012-04-08, 00:39:04,VALID,1001.13,VALID,0,VALID,91.9827,VALID,0,VALID,23.2507,VALID,100,VALID,0.741016,
2012-04-08, 00:40:04,VALID,1001.14,VALID,0,VALID,92.0743,VALID,0,VALID,23.2524,VALID,100,VALID,0.729297,
2012-04-08, 00:41:04,VALID,1001.14,VALID,0,VALID,92.0895,VALID,0,VALID,23.2524,VALID,100,VALID,0.625391,
2012-04-08, 00:42:04,VALID,1001.13,VALID,0,VALID,92.1811,VALID,0,VALID,23.2524,VALID,104,VALID,0.967969,
2012-04-08, 00:43:04,VALID,1001.13,VALID,0,VALID,92.1658,VALID,0,VALID,23.2329,VALID,104,VALID,0.735547,
2012-04-08, 00:44:04,VALID,1001.12,VALID,0,VALID,92.12,VALID,0,VALID,23.2347,VALID,104,VALID,0.823047,
2012-04-08, 00:45:04,VALID,1001.09,VALID,0,VALID,92.1811,VALID,0,VALID,23.2134,VALID,104,VALID,0.80625,
2012-04-08, 00:46:04,VALID,1001.09,VALID,0,VALID,92.204,VALID,0,VALID,23.1939,VALID,104,VALID,0.838672,
2012-04-08, 00:47:04,VALID,1001.09,VALID,0,VALID,92.2345,VALID,0,VALID,23.1939,VALID,104,VALID,0.799609,
2012-04-08, 00:48:04,VALID,1001.08,VALID,0,VALID,92.2116,VALID,0,VALID,23.2134,VALID,104,VALID,0.798047,
2012-04-08, 00:49:04,VALID,1001.09,VALID,0,VALID,92.0819,VALID,0,VALID,23.1744,VALID,104,VALID,0.545703,
2012-04-08, 00:50:04,VALID,1001.11,VALID,0,VALID,92.1277,VALID,0,VALID,23.1744,VALID,104,VALID,0.438281,
2012-04-08, 00:51:04,VALID,1001.09,VALID,0,VALID,92.1048,VALID,0,VALID,23.1549,VALID,104,VALID,0.600391,
2012-04-08, 00:52:04,VALID,1001.09,VALID,0,VALID,92.0285,VALID,0,VALID,23.1549,VALID,104,VALID,0.589453,
2012-04-08, 00:53:04,VALID,1001.12,VALID,0,VALID,91.9369,VALID,0,VALID,23.1354,VALID,104,VALID,0.387891,
2012-04-08, 00:54:04,VALID,1001.12,VALID,0,VALID,91.8606,VALID,0,VALID,23.1354,VALID,104,VALID,0.127344,
2012-04-08, 00:55:04,VALID,1001.12,VALID,0,VALID,91.708,VALID,0,VALID,23.0964,VALID,126,VALID,0.684375,
2012-04-08, 00:56:04,VALID,1001.1,VALID,0,VALID,91.4791,VALID,0,VALID,23.0964,VALID,126,VALID,0.632422,
2012-04-08, 00:57:04,VALID,1001.08,VALID,0,VALID,91.3952,VALID,0,VALID,23.0769,VALID,132,VALID,1.06289,
2012-04-08, 00:58:04,VALID,1001.08,VALID,0,VALID,91.4563,VALID,0,VALID,23.0769,VALID,136,VALID,1.17891,
2012-04-08, 00:59:04,VALID,1001.05,VALID,0,VALID,91.3418,VALID,0,VALID,23.0769,VALID,135,VALID,0.75,
2012-04-08, 01:00:04,VALID,1001.05,VALID,0,VALID,91.3113,VALID,0,VALID,23.0573,VALID,144,VALID,1.1168,
2012-04-08, 01:01:04,VALID,1001.01,VALID,0,VALID,91.3571,VALID,0,VALID,23.0573,VALID,145,VALID,1.07305,
2012-04-08, 01:02:04,VALID,1000.99,VALID,0,VALID,91.296,VALID,0,VALID,23.0573,VALID,136,VALID,0.721094,
2012-04-08, 01:03:04,VALID,1000.99,VALID,0,VALID,91.2121,VALID,0,VALID,23.0573,VALID,137,VALID,0.624219,
2012-04-08, 01:04:04,VALID,1000.99,VALID,0,VALID,91.1663,VALID,0,VALID,23.0361,VALID,137,VALID,0.854688,
2012-04-08, 01:05:04,VALID,1000.95,VALID,0,VALID,91.2503,VALID,0,VALID,23.0769,VALID,144,VALID,1.13125,
2012-04-08, 01:06:04,VALID,1000.95,VALID,0,VALID,91.2503,VALID,0,VALID,23.0769,VALID,145,VALID,0.75625,
2012-04-08, 01:07:04,VALID,1000.94,VALID,0,VALID,91.1282,VALID,0,VALID,23.0964,VALID,145,VALID,0.779297,
2012-04-08, 01:08:04,VALID,1000.94,VALID,0,VALID,91.0519,VALID,0,VALID,23.0964,VALID,144,VALID,0.801172,
2012-04-08, 01:09:04,VALID,1000.9,VALID,0,VALID,91.0443,VALID,0,VALID,23.0769,VALID,144,VALID,0.697266,
2012-04-08, 01:10:04,VALID,1000.92,VALID,0,VALID,91.0366,VALID,0,VALID,23.0769,VALID,144,VALID,0.506641,
2012-04-08, 01:11:04,VALID,1000.9,VALID,0,VALID,91.0137,VALID,0,VALID,23.0769,VALID,144,VALID,0.321875,
2012-04-08, 01:12:04,VALID,1000.92,VALID,0,VALID,90.9756,VALID,0,VALID,23.0573,VALID,144,VALID,0.402734,
2012-04-08, 01:13:04,VALID,1000.9,VALID,0,VALID,90.9603,VALID,0,VALID,23.0166,VALID,144,VALID,0.148828,
2012-04-08, 01:14:04,VALID,1000.91,VALID,0,VALID,91.0137,VALID,0,VALID,22.9971,VALID,144,VALID,0.488281,
2012-04-08, 01:15:04,VALID,1000.91,VALID,0,VALID,91.2045,VALID,0,VALID,23.0183,VALID,144,VALID,0.307031,
2012-04-08, 01:16:04,VALID,1000.93,VALID,0,VALID,91.2731,VALID,0,VALID,23.0183,VALID,144,VALID,0,
2012-04-08, 01:17:04,VALID,1000.9,VALID,0,VALID,91.3494,VALID,0.104696,VALID,22.9776,VALID,144,VALID,0,
2012-04-08, 01:18:04,VALID,1000.88,VALID,0,VALID,91.441,VALID,0,VALID,23.0183,VALID,144,VALID,0,
2012-04-08, 01:19:04,VALID,1000.86,VALID,0,VALID,91.5326,VALID,0,VALID,22.9988,VALID,144,VALID,0.381641,
2012-04-08, 01:20:04,VALID,1000.86,VALID,0,VALID,91.586,VALID,0,VALID,22.9988,VALID,144,VALID,0.432813,
2012-04-08, 01:21:04,VALID,1000.84,VALID,0,VALID,91.6394,VALID,0,VALID,23.0183,VALID,144,VALID,0.44375,
2012-04-08, 01:22:04,VALID,1000.84,VALID,0,VALID,91.5936,VALID,0,VALID,23.0183,VALID,144,VALID,0.380859,
2012-04-08, 01:23:04,VALID,1000.83,VALID,0,VALID,91.6088,VALID,0,VALID,23.0183,VALID,144,VALID,0.352734,
2012-04-08, 01:24:04,VALID,1000.85,VALID,0,VALID,91.6394,VALID,0,VALID,22.9971,VALID,144,VALID,0.455469,
2012-04-08, 01:25:04,VALID,1000.82,VALID,0,VALID,91.6394,VALID,0,VALID,23.0378,VALID,144,VALID,0.326953,
2012-04-08, 01:26:04,VALID,1000.84,VALID,0,VALID,91.6165,VALID,0,VALID,23.0361,VALID,144,VALID,0.372656,
2012-04-08, 01:27:04,VALID,1000.8,VALID,0,VALID,91.5783,VALID,0,VALID,23.0573,VALID,144,VALID,0.50625,
2012-04-08, 01:28:04,VALID,1000.81,VALID,0,VALID,91.5249,VALID,0,VALID,23.0573,VALID,143,VALID,0.486719,
2012-04-08, 01:29:04,VALID,1000.83,VALID,0,VALID,91.441,VALID,0,VALID,23.0361,VALID,136,VALID,0.519531,
2012-04-08, 01:30:04,VALID,1000.79,VALID,0,VALID,91.5326,VALID,0,VALID,23.0573,VALID,95,VALID,0.838672,
2012-04-08, 01:31:04,VALID,1000.79,VALID,0,VALID,91.5249,VALID,0,VALID,23.0378,VALID,97,VALID,0.975781,
2012-04-08, 01:32:04,VALID,1000.77,VALID,0,VALID,91.441,VALID,0,VALID,23.0573,VALID,101,VALID,0.850391,
2012-04-08, 01:33:04,VALID,1000.75,VALID,0,VALID,91.5173,VALID,0,VALID,23.0378,VALID,99,VALID,0.642578,
2012-04-08, 01:34:04,VALID,1000.77,VALID,0,VALID,91.5249,VALID,0,VALID,23.0166,VALID,99,VALID,0.575391,
2012-04-08, 01:35:04,VALID,1000.71,VALID,0,VALID,91.4181,VALID,0,VALID,22.9988,VALID,99,VALID,0.394922,
2012-04-08, 01:36:04,VALID,1000.72,VALID,0,VALID,91.4715,VALID,0,VALID,22.9988,VALID,99,VALID,0.378516,
2012-04-08, 01:37:04,VALID,1000.71,VALID,0,VALID,91.6623,VALID,0,VALID,22.9988,VALID,99,VALID,0.440234,
2012-04-08, 01:38:04,VALID,1000.72,VALID,0,VALID,91.7157,VALID,0,VALID,22.9793,VALID,99,VALID,0.146484,
2012-04-08, 01:39:04,VALID,1000.73,VALID,0,VALID,91.7385,VALID,0,VALID,22.9581,VALID,99,VALID,0.271484,
2012-04-08, 01:40:04,VALID,1000.72,VALID,0,VALID,91.7843,VALID,0,VALID,22.9581,VALID,104,VALID,0.453906,
2012-04-08, 01:41:04,VALID,1000.74,VALID,0,VALID,91.8072,VALID,0,VALID,22.9581,VALID,104,VALID,0.235938,
2012-04-08, 01:42:04,VALID,1000.72,VALID,0,VALID,91.792,VALID,0,VALID,22.9385,VALID,104,VALID,0.333984,
2012-04-08, 01:43:04,VALID,1000.76,VALID,0,VALID,91.7538,VALID,0,VALID,22.9598,VALID,104,VALID,0.416797,
2012-04-08, 01:44:04,VALID,1000.76,VALID,0,VALID,91.8377,VALID,0,VALID,22.9403,VALID,104,VALID,0.548437,
2012-04-08, 01:45:04,VALID,1000.77,VALID,0,VALID,91.8988,VALID,0,VALID,22.9598,VALID,104,VALID,0.510938,
2012-04-08, 01:46:04,VALID,1000.79,VALID,0,VALID,91.9064,VALID,0,VALID,22.9598,VALID,104,VALID,0.657812,
2012-04-08, 01:47:04,VALID,1000.76,VALID,0,VALID,91.9674,VALID,0,VALID,22.9793,VALID,104,VALID,0.667578,
2012-04-08, 01:48:04,VALID,1000.8,VALID,0,VALID,91.8835,VALID,0,VALID,22.9598,VALID,104,VALID,0.517187,
2012-04-08, 01:49:04,VALID,1000.78,VALID,0,VALID,91.998,VALID,0,VALID,22.9793,VALID,104,VALID,0.732813,
2012-04-08, 01:50:04,VALID,1000.75,VALID,0,VALID,92.0285,VALID,0,VALID,22.9793,VALID,104,VALID,0.729688,
2012-04-08, 01:51:04,VALID,1000.74,VALID,0,VALID,92.059,VALID,0,VALID,22.9793,VALID,104,VALID,0.713672,
2012-04-08, 01:52:04,VALID,1000.72,VALID,0,VALID,91.9293,VALID,0,VALID,22.9988,VALID,104,VALID,0.734766,
2012-04-08, 01:53:04,VALID,1000.71,VALID,0,VALID,91.9522,VALID,0,VALID,22.9988,VALID,104,VALID,0.70625,
2012-04-08, 01:54:04,VALID,1000.7,VALID,0,VALID,91.9064,VALID,0,VALID,22.9793,VALID,104,VALID,0.988281,
2012-04-08, 01:55:04,VALID,1000.71,VALID,0,VALID,91.9751,VALID,0,VALID,22.9793,VALID,105,VALID,0.742578,
2012-04-08, 01:56:04,VALID,1000.72,VALID,0,VALID,91.9598,VALID,0,VALID,22.9598,VALID,104,VALID,0.697266,
2012-04-08, 01:57:04,VALID,1000.71,VALID,0,VALID,91.9674,VALID,0,VALID,22.9581,VALID,104,VALID,0.657812,
2012-04-08, 01:58:04,VALID,1000.7,VALID,0,VALID,91.9751,VALID,0,VALID,22.9793,VALID,104,VALID,0.639844,
2012-04-08, 01:59:04,VALID,1000.68,VALID,0,VALID,92.0285,VALID,0,VALID,22.9581,VALID,104,VALID,0.772266,
2012-04-08, 02:00:04,VALID,1000.68,VALID,0,VALID,92.0971,VALID,0,VALID,22.9793,VALID,105,VALID,0.822266,
2012-04-08, 02:01:04,VALID,1000.65,VALID,0,VALID,91.998,VALID,0,VALID,22.9598,VALID,105,VALID,1.06719,
2012-04-08, 02:02:04,VALID,1000.64,VALID,0,VALID,91.9751,VALID,0,VALID,22.9598,VALID,105,VALID,1.00352,
2012-04-08, 02:03:04,VALID,1000.6,VALID,0,VALID,91.9674,VALID,0,VALID,22.9385,VALID,105,VALID,0.708984,
2012-04-08, 02:04:04,VALID,1000.62,VALID,0,VALID,91.8683,VALID,0,VALID,22.9403,VALID,105,VALID,0.830078,
2012-04-08, 02:05:04,VALID,1000.64,VALID,0,VALID,91.8759,VALID,0,VALID,22.919,VALID,105,VALID,0.759766,
2012-04-08, 02:06:04,VALID,1000.58,VALID,0,VALID,91.9445,VALID,0,VALID,22.9208,VALID,105,VALID,0.776172,
2012-04-08, 02:07:04,VALID,1000.55,VALID,0,VALID,91.9674,VALID,0,VALID,22.9013,VALID,104,VALID,0.683984,
2012-04-08, 02:08:04,VALID,1000.57,VALID,0,VALID,92.0895,VALID,0,VALID,22.8818,VALID,104,VALID,0.669922,
2012-04-08, 02:09:04,VALID,1000.56,VALID,0,VALID,92.2574,VALID,0,VALID,22.8605,VALID,104,VALID,0.725,
2012-04-08, 02:10:04,VALID,1000.55,VALID,0,VALID,92.2803,VALID,0,VALID,22.9013,VALID,91,VALID,0.729688,
2012-04-08, 02:11:04,VALID,1000.53,VALID,0,VALID,92.2574,VALID,0,VALID,22.88,VALID,63,VALID,0.780469,
2012-04-08, 02:12:04,VALID,1000.49,VALID,0,VALID,92.2345,VALID,0,VALID,22.8818,VALID,63,VALID,0.814062,
2012-04-08, 02:13:04,VALID,1000.47,VALID,0,VALID,92.2192,VALID,0,VALID,22.8818,VALID,63,VALID,0.996484,
2012-04-08, 02:14:04,VALID,1000.47,VALID,0,VALID,92.1734,VALID,0,VALID,22.8818,VALID,63,VALID,0.853125,
2012-04-08, 02:15:04,VALID,1000.45,VALID,0,VALID,92.2497,VALID,0,VALID,22.8605,VALID,63,VALID,0.760547,
2012-04-08, 02:16:04,VALID,1000.42,VALID,0,VALID,92.2345,VALID,0,VALID,22.8818,VALID,63,VALID,0.665234,
2012-04-08, 02:17:04,VALID,1000.39,VALID,0,VALID,92.2421,VALID,0,VALID,22.9013,VALID,63,VALID,0.657031,
2012-04-08, 02:18:04,VALID,1000.41,VALID,0,VALID,92.1734,VALID,0.104696,VALID,22.8818,VALID,63,VALID,0.389453,
2012-04-08, 02:19:04,VALID,1000.4,VALID,0,VALID,92.1429,VALID,0,VALID,22.9013,VALID,63,VALID,0.437891,
2012-04-08, 02:20:04,VALID,1000.42,VALID,0,VALID,92.0819,VALID,0,VALID,22.8818,VALID,63,VALID,0.197266,
2012-04-08, 02:21:04,VALID,1000.39,VALID,0,VALID,92.0132,VALID,0,VALID,22.8623,VALID,63,VALID,0.367969,
2012-04-08, 02:22:04,VALID,1000.4,VALID,0,VALID,92.0209,VALID,0,VALID,22.8427,VALID,115,VALID,0.739844,
2012-04-08, 02:23:04,VALID,1000.38,VALID,0,VALID,91.8988,VALID,0,VALID,22.8427,VALID,122,VALID,0.997266,
2012-04-08, 02:24:04,VALID,1000.36,VALID,0,VALID,91.8377,VALID,0,VALID,22.8427,VALID,122,VALID,0.708203,
2012-04-08, 02:25:04,VALID,1000.33,VALID,0,VALID,91.792,VALID,0,VALID,22.802,VALID,136,VALID,0.715625,
2012-04-08, 02:26:04,VALID,1000.36,VALID,0,VALID,91.7767,VALID,0,VALID,22.8037,VALID,143,VALID,0.810547,
2012-04-08, 02:27:04,VALID,1000.35,VALID,0,VALID,91.8454,VALID,0,VALID,22.8037,VALID,143,VALID,0.876953,
2012-04-08, 02:28:04,VALID,1000.35,VALID,0,VALID,91.8377,VALID,0,VALID,22.8232,VALID,141,VALID,0.900781,
2012-04-08, 02:29:04,VALID,1000.35,VALID,0,VALID,91.7614,VALID,0,VALID,22.8037,VALID,139,VALID,0.860547,
2012-04-08, 02:30:04,VALID,1000.36,VALID,0,VALID,91.7157,VALID,0,VALID,22.8037,VALID,139,VALID,0.698828,
2012-04-08, 02:31:04,VALID,1000.4,VALID,0,VALID,91.7843,VALID,0,VALID,22.7842,VALID,139,VALID,0.458594,
2012-04-08, 02:32:04,VALID,1000.36,VALID,0,VALID,91.7309,VALID,0,VALID,22.7842,VALID,135,VALID,0.419141,
2012-04-08, 02:33:04,VALID,1000.38,VALID,0,VALID,91.7309,VALID,0,VALID,22.7842,VALID,135,VALID,0.00195313,
2012-04-08, 02:34:04,VALID,1000.38,VALID,0,VALID,91.7538,VALID,0,VALID,22.7842,VALID,135,VALID,0,
2012-04-08, 02:35:04,VALID,1000.41,VALID,0,VALID,91.7309,VALID,0,VALID,22.786,VALID,135,VALID,0,
2012-04-08, 02:36:04,VALID,1000.43,VALID,0,VALID,91.6928,VALID,0,VALID,22.7452,VALID,135,VALID,0,
2012-04-08, 02:37:04,VALID,1000.44,VALID,0,VALID,91.8225,VALID,0,VALID,22.7257,VALID,135,VALID,0,
2012-04-08, 02:38:04,VALID,1000.49,VALID,0,VALID,91.9827,VALID,0,VALID,22.7452,VALID,135,VALID,0,
2012-04-08, 02:39:04,VALID,1000.52,VALID,0,VALID,92.0437,VALID,0,VALID,22.7452,VALID,135,VALID,0.540234,
2012-04-08, 02:40:04,VALID,1000.52,VALID,0,VALID,92.1506,VALID,0,VALID,22.7452,VALID,74,VALID,0.730859,
2012-04-08, 02:41:04,VALID,1000.57,VALID,0,VALID,92.2497,VALID,0,VALID,22.7452,VALID,51,VALID,0.842578,
2012-04-08, 02:42:04,VALID,1000.54,VALID,0,VALID,92.12,VALID,0,VALID,22.7452,VALID,51,VALID,0.748438,
2012-04-08, 02:43:04,VALID,1000.55,VALID,0,VALID,92.2345,VALID,0,VALID,22.7452,VALID,52,VALID,0.660547,
2012-04-08, 02:44:04,VALID,1000.54,VALID,0,VALID,92.4023,VALID,0,VALID,22.7452,VALID,52,VALID,0.641406,
2012-04-08, 02:45:04,VALID,1000.52,VALID,0,VALID,92.4023,VALID,0,VALID,22.763,VALID,68,VALID,0.519922,
2012-04-08, 02:46:04,VALID,1000.54,VALID,0,VALID,92.3184,VALID,0,VALID,22.7842,VALID,83,VALID,0.773047,
2012-04-08, 02:47:04,VALID,1000.52,VALID,0,VALID,92.265,VALID,0.104696,VALID,22.8037,VALID,88,VALID,0.621875,
2012-04-08, 02:48:04,VALID,1000.57,VALID,0,VALID,92.2268,VALID,0.104696,VALID,22.802,VALID,88,VALID,0.318359,
2012-04-08, 02:49:04,VALID,1000.52,VALID,0,VALID,92.1734,VALID,0,VALID,22.8427,VALID,88,VALID,0.445703,
2012-04-08, 02:50:04,VALID,1000.55,VALID,0,VALID,92.1353,VALID,0,VALID,22.8623,VALID,98,VALID,0.679688,
2012-04-08, 02:51:04,VALID,1000.53,VALID,0,VALID,92.1506,VALID,0.104696,VALID,22.8818,VALID,116,VALID,0.634766,
2012-04-08, 02:52:04,VALID,1000.54,VALID,0,VALID,92.0437,VALID,0,VALID,22.9013,VALID,117,VALID,0.638281,
2012-04-08, 02:53:04,VALID,1000.51,VALID,0,VALID,92.0666,VALID,0,VALID,22.8995,VALID,125,VALID,0.655859,
2012-04-08, 02:54:04,VALID,1000.56,VALID,0,VALID,91.9751,VALID,0,VALID,22.9208,VALID,125,VALID,0.533594,
2012-04-08, 02:55:04,VALID,1000.59,VALID,0,VALID,91.8835,VALID,0,VALID,22.9403,VALID,125,VALID,0.377344,
2012-04-08, 02:56:04,VALID,1000.56,VALID,0,VALID,91.6851,VALID,0,VALID,22.9403,VALID,125,VALID,0.369141,
2012-04-08, 02:57:04,VALID,1000.57,VALID,0,VALID,91.6317,VALID,0,VALID,22.9208,VALID,125,VALID,0.193359,
2012-04-08, 02:58:04,VALID,1000.57,VALID,0,VALID,91.4944,VALID,0,VALID,22.8818,VALID,125,VALID,0.292188,
2012-04-08, 02:59:04,VALID,1000.58,VALID,0,VALID,91.5097,VALID,0,VALID,22.8623,VALID,125,VALID,0.451562,
2012-04-08, 03:00:04,VALID,1000.55,VALID,0,VALID,91.5936,VALID,0,VALID,22.8427,VALID,125,VALID,0.576953,
2012-04-08, 03:01:04,VALID,1000.59,VALID,0,VALID,91.6546,VALID,0,VALID,22.8037,VALID,125,VALID,0.730469,
2012-04-08, 03:02:04,VALID,1000.59,VALID,0,VALID,91.7157,VALID,0,VALID,22.7842,VALID,125,VALID,0.9125,
2012-04-08, 03:03:04,VALID,1000.61,VALID,0,VALID,91.9598,VALID,0,VALID,22.7842,VALID,136,VALID,0.8625,
2012-04-08, 03:04:04,VALID,1000.59,VALID,0,VALID,92.0819,VALID,0.104696,VALID,22.7842,VALID,136,VALID,0.795703,
2012-04-08, 03:05:04,VALID,1000.6,VALID,0,VALID,92.059,VALID,0,VALID,22.802,VALID,136,VALID,0.830469,
2012-04-08, 03:06:04,VALID,1000.59,VALID,0,VALID,92.059,VALID,0,VALID,22.8037,VALID,136,VALID,0.803125,
2012-04-08, 03:07:04,VALID,1000.6,VALID,0,VALID,92.0971,VALID,0.104696,VALID,22.8232,VALID,136,VALID,0.771875,
2012-04-08, 03:08:04,VALID,1000.56,VALID,0,VALID,92.1887,VALID,0.104696,VALID,22.8427,VALID,136,VALID,0.70625,
2012-04-08, 03:09:04,VALID,1000.55,VALID,0,VALID,91.9293,VALID,0,VALID,22.8427,VALID,136,VALID,0.807813,
2012-04-08, 03:10:04,VALID,1000.59,VALID,0,VALID,91.6317,VALID,0,VALID,22.8232,VALID,136,VALID,0.782031,
2012-04-08, 03:11:04,VALID,1000.57,VALID,0,VALID,91.441,VALID,0,VALID,22.8037,VALID,136,VALID,0.825781,
2012-04-08, 03:12:04,VALID,1000.55,VALID,0,VALID,91.3037,VALID,0,VALID,22.763,VALID,136,VALID,0.728125,
2012-04-08, 03:13:04,VALID,1000.56,VALID,0,VALID,91.2655,VALID,0.104696,VALID,22.7435,VALID,136,VALID,0.747656,
2012-04-08, 03:14:04,VALID,1000.53,VALID,0,VALID,91.3266,VALID,0.104696,VALID,22.7452,VALID,136,VALID,0.929688,
2012-04-08, 03:15:04,VALID,1000.55,VALID,0,VALID,91.4868,VALID,0,VALID,22.7257,VALID,147,VALID,1.16367,
2012-04-08, 03:16:04,VALID,1000.57,VALID,0,VALID,91.6165,VALID,0.104696,VALID,22.7452,VALID,147,VALID,1.11836,
2012-04-08, 03:17:04,VALID,1000.55,VALID,0,VALID,91.647,VALID,0,VALID,22.7452,VALID,147,VALID,1.10039,
2012-04-08, 03:18:04,VALID,1000.57,VALID,0,VALID,91.6623,VALID,0,VALID,22.7647,VALID,147,VALID,1.03906,
2012-04-08, 03:19:04,VALID,1000.55,VALID,0,VALID,91.647,VALID,0.104696,VALID,22.763,VALID,147,VALID,0.928125,
2012-04-08, 03:20:04,VALID,1000.55,VALID,0,VALID,91.6317,VALID,0,VALID,22.7842,VALID,147,VALID,0.73125,
2012-04-08, 03:21:04,VALID,1000.57,VALID,0,VALID,91.5936,VALID,0,VALID,22.8055,VALID,139,VALID,0.752734,
2012-04-08, 03:22:04,VALID,1000.54,VALID,0,VALID,91.4791,VALID,0,VALID,22.8055,VALID,138,VALID,0.758203,
2012-04-08, 03:23:04,VALID,1000.56,VALID,0,VALID,91.5402,VALID,0,VALID,22.7842,VALID,138,VALID,0.866016,
2012-04-08, 03:24:04,VALID,1000.52,VALID,0,VALID,91.4181,VALID,0,VALID,22.7647,VALID,138,VALID,0.831641,
2012-04-08, 03:25:04,VALID,1000.5,VALID,0,VALID,91.2884,VALID,0,VALID,22.7452,VALID,149,VALID,0.880469,
2012-04-08, 03:26:04,VALID,1000.48,VALID,0,VALID,91.3952,VALID,0,VALID,22.7452,VALID,152,VALID,1.06133,
2012-04-08, 03:27:04,VALID,1000.46,VALID,0,VALID,91.4105,VALID,0.104696,VALID,22.7452,VALID,155,VALID,1.05938,
2012-04-08, 03:28:04,VALID,1000.44,VALID,0,VALID,91.4181,VALID,0,VALID,22.7452,VALID,155,VALID,0.923828,
2012-04-08, 03:29:04,VALID,1000.44,VALID,0,VALID,91.502,VALID,0,VALID,22.7452,VALID,155,VALID,1.11406,
2012-04-08, 03:30:04,VALID,1000.43,VALID,0,VALID,91.502,VALID,0,VALID,22.7452,VALID,147,VALID,0.978516,
2012-04-08, 03:31:04,VALID,1000.42,VALID,0,VALID,91.5936,VALID,0,VALID,22.7452,VALID,162,VALID,0.952734,
2012-04-08, 03:32:04,VALID,1000.45,VALID,0,VALID,91.5554,VALID,0,VALID,22.7647,VALID,166,VALID,0.758984,
2012-04-08, 03:33:04,VALID,1000.41,VALID,0,VALID,91.5097,VALID,0,VALID,22.7647,VALID,166,VALID,1.02617,
2012-04-08, 03:34:04,VALID,1000.42,VALID,0,VALID,91.5173,VALID,0,VALID,22.7647,VALID,166,VALID,1.03477,
2012-04-08, 03:35:04,VALID,1000.49,VALID,0,VALID,91.441,VALID,0,VALID,22.7647,VALID,166,VALID,0.833203,
2012-04-08, 03:36:04,VALID,1000.48,VALID,0,VALID,91.4257,VALID,0,VALID,22.7647,VALID,161,VALID,0.870313,
2012-04-08, 03:37:04,VALID,1000.46,VALID,0,VALID,91.4486,VALID,0,VALID,22.7647,VALID,161,VALID,0.804297,
2012-04-08, 03:38:04,VALID,1000.44,VALID,0,VALID,91.4028,VALID,0,VALID,22.7647,VALID,161,VALID,0.595312,
2012-04-08, 03:39:04,VALID,1000.47,VALID,0,VALID,91.3571,VALID,0,VALID,22.7647,VALID,161,VALID,0.761719,
2012-04-08, 03:40:04,VALID,1000.46,VALID,0,VALID,91.3418,VALID,0,VALID,22.7647,VALID,160,VALID,0.460547,
2012-04-08, 03:41:04,VALID,1000.45,VALID,0,VALID,91.296,VALID,0,VALID,22.7435,VALID,161,VALID,0.523047,
2012-04-08, 03:42:04,VALID,1000.45,VALID,0,VALID,91.2197,VALID,0,VALID,22.7452,VALID,161,VALID,0.422656,
2012-04-08, 03:43:04,VALID,1000.46,VALID,0,VALID,91.174,VALID,0,VALID,22.7045,VALID,160,VALID,0.536719,
2012-04-08, 03:44:04,VALID,1000.45,VALID,0,VALID,91.2503,VALID,0,VALID,22.7452,VALID,160,VALID,0.470703,